Regional Weather Roundup
Issued by NWS Upton, NY

Current Version | Previous Version | Graphics & Text | Print | Product List | Glossary Off
Versions: 1 2 3 4 5 6 7 8 9 10 11 12 13 14 15 16 17 18 19 20 21 22 23 24 25 26 27 28 29 30 31 32 33 34 35 36 37 38 39 40 41 42 43 44 45 46 47 48 49 50

000
ASUS41 KOKX 301404
RWROKX

REGIONAL WEATHER ROUNDUP
NATIONAL WEATHER SERVICE NEW YORK NY
1000 AM EDT SAT APR 30 2016

NOTE: "FAIR" INDICATES FEW OR NO CLOUDS BELOW 12,000 FEET WITH NO
SIGNIFICANT WEATHER AND/OR OBSTRUCTIONS TO VISIBILITY.

NYZ071-072-176-178-NJZ106-104-301500-
NEW YORK CITY METRO AREA


CITY           SKY/WX    TMP DP  RH WIND       PRES   REMARKS
CENTRAL PARK   CLOUDY    53  35  50 NE3       30.24S
LAGUARDIA APRT PTSUNNY   53  38  56 CALM      30.22S
KENNEDY INTL   CLOUDY    53  38  56 N6        30.23S
NEWARK/LIBERTY PTSUNNY   54  43  66 N8        30.21F
BRNX BOT. GARD   N/A     52  39  62 N10       30.22S
TETERBORO      MOSUNNY   53  38  56 N6        30.21F
$$

NYZ177-179-078>081-301500-
LONG ISLAND NEW YORK

CITY           SKY/WX    TMP DP  RH WIND       PRES   REMARKS
FARMINGDALE    CLOUDY    52  41  66 N6        30.22S
ISLIP          MOSUNNY   56  39  53 E5        30.21S
SHIRLEY        SUNNY     56  42  59 VRB6      30.22R
RIVERHEAD        N/A     52  45  76 NE5       30.22R
WESTHAMPTON    SUNNY     54  39  57 NE10      30.23R
EAST HAMPTON   FAIR      51  36  56 NE6       30.21R
MONTAUK POINT    N/A     49  39  68 N8        30.22S
$$

NYZ052-065-067-301500-
HUDSON VALLEY

CITY           SKY/WX    TMP DP  RH WIND       PRES   REMARKS
WHITE PLAINS   MOSUNNY   52  41  66 CALM      30.21S
NEWBURGH       PTSUNNY   52  43  71 CALM      30.22S
MONTGOMERY     SUNNY     52  42  69 CALM      30.21S
POUGHKEEPSIE   MOSUNNY   53  43  68 CALM      30.21S
ALBANY         MOSUNNY   54  27  35 N8        30.22F
$$

NJZ001-105-106-008-010-013-015-019>022-104-301500-
NEW JERSEY

CITY           SKY/WX    TMP DP  RH WIND       PRES   REMARKS
NEWARK/LIBERTY PTSUNNY   54  43  66 N8        30.21F
TETERBORO      MOSUNNY   53  38  56 N6        30.21F
CALDWELL       MOSUNNY   53  40  61 E6        30.22F
MORRISTOWN     PTSUNNY   54  43  66 CALM      30.22F
SOMERVILLE     CLOUDY    52  39  61 CALM      30.20F
SUSSEX         PTSUNNY   52  42  69 N3        30.21F
ANDOVER          N/A     51  41  68 VRB3      30.21F
TRENTON        CLOUDY    52  41  66 NE7       30.21F
MILLVILLE      CLOUDY    51  41  68 NE8       30.19F
ATLANTIC CITY  CLOUDY    50  41  71 NE9       30.20F
WRIGHTSTOWN    NOT AVBL
TOMS RIVER     CLOUDY    50  39  66 N7        30.21F
BELMAR         CLOUDY    49  40  71 N8        30.22F
$$

PAZ047>061-062-071-301500-
EASTERN PENNSYLVANIA

CITY           SKY/WX    TMP DP  RH WIND       PRES   REMARKS
PHILADELPHIA   PTSUNNY   53  40  61 NE6       30.22F
ALLENTOWN      CLOUDY    51  40  65 E3        30.21F
SCRANTON       CLOUDY    48  40  73 NE5       30.20S
$$

CTZ002-004>006-009-010-012-RIZ004-006-007-MAZ004-011-015-301500-
SOUTHERN NEW ENGLAND
 IN CT

CITY           SKY/WX    TMP DP  RH WIND       PRES   REMARKS
BRADLEY INTL   MOSUNNY   57  40  52 N8        30.19S
HARTFORD       SUNNY     57  42  57 MISG      30.21S
DANBURY        SUNNY     54  42  64 E3        30.22S
WTRBRY/OXFORD  MOSUNNY   52  25  35 NW5       30.22R
BRIDGEPORT     SUNNY     51  43  74 S7        30.22R
MERIDEN          N/A     57  40  52 MISG      30.21R
NEW HAVEN      SUNNY     53  43  68 VRB5      30.21S
CHESTER        FAIR      55  37  50 VRB5      30.20S
GROTON         SUNNY     55  40  56 N6        30.20F
WILLIMANTIC    SUNNY     57  37  47 N6        30.21F

 IN RI

CITY           SKY/WX    TMP DP  RH WIND       PRES   REMARKS
PROVIDENCE     MOSUNNY   56  29  35 N5        30.22F
BLOCK ISLAND   NOT AVBL
WESTERLY       SUNNY     57  28  33 NE9       30.20F

 IN MA

CITY           SKY/WX    TMP DP  RH WIND       PRES   REMARKS
BOSTON         SUNNY     53  31  42 SE7       30.24S
WORCESTER      PTSUNNY   51  35  54 NE5       30.20F
WESTFIELD      MOSUNNY   57  39  51 NE7       30.19F
PROVINCETOWN   SUNNY     49  38  65 VRB5      30.27R
NANTUCKET      SUNNY     53  33  46 NE16      30.24R
$$

ANZ330-335-338-340-345-350-353-355-301500-
COASTAL MARINE OBSERVATIONS


STATION/POSITION TIME  SKY/WX   TEMP    WIND        PRES    VSBY  WAVE
                                AIR SEA DIR/SP/G                  HT/PER
                 (UTC)          (F)     (DEG/KT/KT) (MB)    (MI)  (FT/S)
NY HARB ENTRANCE 1250            47 51   20/ 10/ 12 1023.1          5/ 8
20S FIRE ISLAND  1250            47 48   30/ 14/ 16 1022.9          6/ 8
GREAT SOUTH BAY  1315            53 56   CALM  /  2   N/A
23 SSW MONTAUK P 1250            46 47   20/ 12/ 14 1022.7          5/ 7
15 E BARNEGAT LI 1322               50                N/A           6/ 8
HUDSON CANYON    1250            47 48              1021.9          7/ 8
KINGS POINT      1300            48 53              1023.1
EXECUTION ROCKS  NOT AVBL
CENTRAL LI SOUND 1300            48      80/  2/  4   N/A           0
EASTERN LI SOUND 1300            49 48   10/  8/ 10   N/A
ROBBINS REEF     1312            49     360/  7/  8 1022.8
$$


>>>>>>>>>>>>>>>>>>>>>>>>>>>> KEY <<<<<<<<<<<<<<<<<<<<<<<<<<<
>                                                          <
>     SKY/WX - SKY CONDITION/PRESENT WEATHER               <
>     TMP    - TEMPERATURE IN FAHRENHEIT                   <
>     DP     - DEWPOINT IN FAHRENHEIT                      <
>     RH     - RELATIVE HUMIDITY IN PERCENT                <
>     WIND   - DIRECTION AND SPEED IN MPH                  <
>     PRES   - MEAN SEA LEVEL PRESSURE IN INCHES OF HG     <
>     WCI    - WIND CHILL INDEX                            <
>     VSB    - VISIBILITY IN MILES                         <
>     HX     - HEAT INDEX                                  <
>     TC     - TEMPERATURE IN CELSIUS                      <
>     VRB    - VARIABLE WIND DIRECTION                     <
>                                                          <
>>>>>>>>>>>>>>>>>>>>>>>>>>>> KEY <<<<<<<<<<<<<<<<<<<<<<<<<<<





USA.gov is the U.S. government's official web portal to all federal, state and local government web resources and services.